Voltar ao catálogo

STARLINK-31549

AtivoComunicaçõesVLEO
NORAD 59360·PAYLOAD·🇺🇸 United States

Lançado Mar 31, 2024 de Cape Canaveral Space Force Station

Loading…

Próximas Passagens (próximas 24 horas)

TLE

AtualizadoSource: CelesTrak SupGP

Época: Sep 14, 2026, 20:41 UTC

1 59360C 24060N   26257.86229167  .00007868  00000+0  28506-3 0  2577
2 59360  43.0024 271.2289 0001609 267.0429 236.1550 15.27563208    17

Acompanhe STARLINK-31549 em tempo real com AllMySat

Download on the App Store